Asheville, NC

5:12 AM EST on December 15, 2019 (GMT -0500)
Asheville Regional

Weather History for KAVL - September, 2019

Change the Weather History Date:

Sunday, September 15, 2019

  Actual Average Record
Temperature  
Mean Temperature 77 °F 67 °F  
Max Temperature 89 °F 77 °F 95 °F (1897)
Min Temperature 65 °F 56 °F 36 °F (1985)
Degree Days  
Heating Degree Days 0 1  
Month to date heating degree days 0 7  
Since 1 July heating degree days 0 9  
Cooling Degree Days 12 3  
Month to date cooling degree days 158 67  
Year to date cooling degree days 1164 824  
Growing Degree Days 26 (Base 50)    
Moisture  
Dew Point 64 °F    
Average Humidity 66    
Maximum Humidity 100    
Minimum Humidity 31    
Precipitation  
Precipitation 0.00 in 0.13 in 1.52 in (1977)
Month to date precipitation 0.39 2.00  
Year to date precipitation 42.10 33.61  
Snow  
Snow 0.00 in 0.00 in 0.00 in ()
Month to date snowfall 0.0 0.0  
Since 1 July snowfall 0.0 0.0  
Since 1 September snowfall 0.0 0.0  
Snow Depth 0.00 in    
Sea Level Pressure  
Sea Level Pressure 30.20 in    
Wind  
Wind Speed 5 mph (NNW)    
Max Wind Speed 14 mph    
Max Gust Speed 17 mph    
Visibility 4 miles    
Events Fog    
T = Trace of Precipitation, MM = Missing Value Source: NWS Daily Summary

Daily Weather History Graph

Daily Weather History Graph

Search for Another Location

Airport or City:

Astronomy

Sep. 15, 2019 Rise Set
Actual Time 7:12 AM EDT 7:37 PM EDT
Civil Twilight 6:47 AM EDT 8:03 PM EDT
Nautical Twilight 6:17 AM EDT 8:32 PM EDT
Astronomical Twilight 5:46 AM EDT 9:03 PM EDT
Moon 8:46 PM EDT 8:20 AM EDT
Length of Visible Light 13h 15m
Length of Day
12h 24m
Full, 98% of the Moon is Illuminated
Sep 15
Full
Sep 21
Last Quarter
Sep 28
New
Oct 5
First Quarter
Oct 13
Full

Hourly Weather History & Observations

Time (EDT) Temp. Heat Index Dew Point Humidity Pressure Visibility Wind Dir Wind Speed Gust Speed Precip Events Conditions
12:26 AM 66.9 °F - 64.9 °F 93% 30.29 in 2.5 mi Calm Calm - N/A   Overcast
12:38 AM 66.9 °F - 64.9 °F 93% 30.28 in 1.5 mi South 3.5 mph - N/A   Overcast
12:42 AM 66.9 °F - 64.9 °F 93% 30.28 in 0.8 mi South 3.5 mph - N/A   Overcast
12:54 AM 66.0 °F - 64.9 °F 96% 30.20 in 0.5 mi South 3.5 mph - N/A Fog Fog
1:24 AM 66.0 °F - 64.0 °F 93% 30.28 in 0.2 mi Calm Calm - N/A Fog Fog
1:54 AM 66.0 °F - 64.0 °F 93% 30.19 in 0.8 mi Calm Calm - N/A   Overcast
1:59 AM 66.0 °F - 64.0 °F 93% 30.27 in 1.0 mi Calm Calm - N/A   Overcast
2:08 AM 66.0 °F - 64.0 °F 93% 30.27 in 0.5 mi Calm Calm - N/A Fog Fog
2:14 AM 66.0 °F - 64.0 °F 93% 30.27 in 0.2 mi Calm Calm - N/A Fog Fog
2:26 AM 64.9 °F - 64.0 °F 97% 30.27 in 0.5 mi Calm Calm - N/A Fog Fog
2:37 AM 64.9 °F - 64.0 °F 97% 30.26 in 0.5 mi Calm Calm - N/A Fog Fog
2:54 AM 64.9 °F - 64.0 °F 97% 30.18 in 0.2 mi SW 3.5 mph - N/A Fog Fog
3:54 AM 64.9 °F - 64.0 °F 97% 30.17 in 0.2 mi Calm Calm - N/A Fog Fog
4:54 AM 64.9 °F - 64.0 °F 97% 30.18 in 0.2 mi NNW 3.5 mph - N/A Fog Fog
4:58 AM 66.0 °F - 64.0 °F 93% 30.23 in 0.5 mi NNW 3.5 mph - N/A Fog Fog
5:24 AM 66.0 °F - 64.0 °F 93% 30.24 in 1.5 mi North 4.6 mph - N/A   Overcast
5:30 AM 66.0 °F - 64.0 °F 93% 30.24 in 3.0 mi North 6.9 mph - N/A   Overcast
5:43 AM 66.0 °F - 64.0 °F 93% 30.24 in 2.5 mi North 8.1 mph - N/A   Overcast
5:51 AM 66.2 °F - 64.4 °F 94% 30.24 in 3.0 mi North 8.1 mph - N/A   Overcast
5:54 AM 66.0 °F - 64.0 °F 93% 30.18 in 2.5 mi North 8.1 mph - N/A   Overcast
5:59 AM 66.0 °F - 64.0 °F 93% 30.24 in 1.2 mi North 9.2 mph - N/A   Overcast
6:09 AM 66.0 °F - 64.9 °F 96% 30.24 in 0.8 mi North 8.1 mph - N/A   Overcast
6:22 AM 66.0 °F - 64.9 °F 96% 30.25 in 1.5 mi NNE 5.8 mph - N/A   Overcast
6:28 AM 66.0 °F - 64.9 °F 96% 30.25 in 3.0 mi North 6.9 mph - N/A   Overcast
6:54 AM 66.0 °F - 64.9 °F 96% 30.19 in 5.0 mi North 8.1 mph - N/A   Overcast
7:01 AM 66.9 °F - 64.9 °F 93% 30.26 in 1.5 mi North 5.8 mph - N/A   Overcast
7:11 AM 66.9 °F - 64.9 °F 93% 30.26 in 0.8 mi North 4.6 mph - N/A   Overcast
7:54 AM 66.9 °F - 64.9 °F 93% 30.20 in 0.5 mi North 4.6 mph - N/A Fog Fog
7:57 AM 66.9 °F - 64.9 °F 93% 30.26 in 3.0 mi North 6.9 mph - N/A   Overcast
8:11 AM 66.9 °F - 64.9 °F 93% 30.26 in 0.5 mi North 6.9 mph - N/A Fog Fog
8:54 AM 68.0 °F - 66.0 °F 93% 30.20 in 0.5 mi NNW 4.6 mph - N/A Fog Fog
9:42 AM 69.1 °F - 66.0 °F 90% 30.27 in 0.8 mi Variable 3.5 mph - N/A   Overcast
9:54 AM 69.1 °F - 66.0 °F 90% 30.21 in 0.8 mi North 3.5 mph - N/A   Overcast
10:54 AM 71.1 °F - 66.0 °F 84% 30.21 in 0.8 mi NNW 5.8 mph - N/A   Haze
11:01 AM 71.1 °F - 66.9 °F 87% 30.28 in 6.0 mi NNW 5.8 mph - N/A   Overcast
11:46 AM 75.9 °F - 68.0 °F 76% 30.26 in 10.0 mi NNW 4.6 mph - N/A   Partly Cloudy
11:54 AM 77.0 °F - 68.0 °F 74% 30.18 in 10.0 mi NNW 4.6 mph - N/A   Partly Cloudy
12:54 PM 82.0 °F 83.8 °F 64.9 °F 56% 30.16 in 10.0 mi North 11.5 mph - N/A   Clear
1:54 PM 84.9 °F 84.2 °F 57.9 °F 40% 30.12 in 10.0 mi NNW 9.2 mph - N/A   Clear
2:54 PM 86.0 °F 85.4 °F 59.0 °F 40% 30.11 in 10.0 mi Variable 6.9 mph - N/A   Clear
3:54 PM 87.1 °F 86.1 °F 57.9 °F 37% 30.09 in 10.0 mi NNW 5.8 mph - N/A   Clear
4:54 PM 88.0 °F 86.1 °F 55.0 °F 32% 30.06 in 10.0 mi NW 9.2 mph - N/A   Clear
5:54 PM 87.1 °F 85.1 °F 54.0 °F 32% 30.06 in 10.0 mi North - - N/A   Clear
6:54 PM 82.0 °F 84.5 °F 66.9 °F 60% 30.08 in 10.0 mi SSE 5.8 mph - N/A   Clear
7:54 PM 79.0 °F - 66.0 °F 64% 30.09 in 10.0 mi SSE 3.5 mph - N/A   Clear
8:54 PM 73.9 °F - 66.9 °F 79% 30.11 in 10.0 mi WSW 3.5 mph - N/A   Clear
9:54 PM 71.1 °F - 64.9 °F 81% 30.13 in 10.0 mi WSW 3.5 mph - N/A   Scattered Clouds
10:54 PM 69.1 °F - 64.0 °F 84% 30.14 in 10.0 mi Calm Calm - N/A   Clear
11:54 PM 66.9 °F - 63.0 °F 87% 30.13 in 10.0 mi Calm Calm - N/A   Clear